Location: Chrząstowo
(52.0654°N, 17.1290°E)
Time: 07:09:33
(UTC+01:00)

Envisat - Pass Details

Date: 11 December 2019
Orbit: 764 x 766 km, 98.1° (Epoch: 24 January)

Event Time Altitude Azimuth Distance (km) Brightness Sun altitude
Rises 05:01:21 0° 31° (NNE) 3,246 6.6 -24.4°
Reaches altitude 10° 05:05:41 10° 66° (ENE) 2,312 6.3 -23.8°
Maximum altitude 05:07:06 11° 82° (E) 2,234 6.4 -23.6°
Drops below altitude 10° 05:08:32 10° 99° (E) 2,306 6.6 -23.3°
Sets 05:12:49 0° 134° (SE) 3,224 7.1 -22.7°
